CZ-2D DEB, 44603

Orbit data source: Space-Track

CZ-2D DEB, 44603 is space debris in SSO originally from a launch on Fri, 11 Nov 2016 UTC launched from the Jiuquan Satellite Launch Center, China (JSC). Debris objects in space refer to the collection of defunct objects orbiting the Earth. Examples of debris include non-operational satellites, rocket bodies, and fragments generated from explosions, collisions, or faulty payload assembly.

Loading next visibility...
Identifier
44603, 2016-068C
Orbit
SSO
Country
Flag of CNCN / PRC
Related business
Manufacturer
Unknown
Mission
Spacecraft
Bus & Motor
Unknown
Mass
Unknown
Launch date (UTC)
2016-11-11 (10 years ago)
Launch vehicle
Unknown
Launch site
Jiuquan Satellite Launch Center, China (JSC)
Object type
Payload
Rocket body
Debris
Shape & HBR
Unknown shape, 0.1 m
Radar Cross Section
Small (<0.1 m²)

Expand to show TLE details & history
Last TLE update: 15 hours ago

TLE from 15 hours ago
0 CZ-2D DEB
1 44603U 16068C   26257.27083607  .00000235  00000-0  17139-3 0  9997
2 44603  98.5739  53.8623 0213595 348.3646  11.2623 13.94414971986546
Epoch: 2026-09-14T06:30Z
TLE epoch observation values (Epoch: 2026-09-14T06:30:00.236Z)
Latitude
-0.00003°
Longitude
-36.89221°
Altitude
763.446 km
Speed
7.55 km/s
True Right ascension
03h 35m 26s
True Declination
0° 00' 00"
Sunlit
Object was in full shadow at epoch
Visualization orbit readout
Latitude
Unknown
Longitude
Unknown
Altitude
Unknown
Speed
Unknown
Apparent Right ascension
Unknown
Apparent Declination
Unknown
Sunlit
N/A
Visualization observer readout
Local Sidereal Time
13:40:07
Azimuth
Unknown
Elevation
Unknown
Doppler factor
Unknown
Orbital elements
Apogee altitude
1,066.063 km
Perigee altitude
754.705 km
Semi-major axis
7,288.521 km
Eccentricity
0.02136
Inclination
98.5739°
RAAN
53.8623°
Arg. of periapsis
348.3646°
True anomaly
11.75316°
Mean anomaly
11.2623°
Eccentric anomaly
11.50642°
Mean motion
3.48806 °/min
Orbital period
103.21 mins
BSTAR
0.00017139
Loading maneuver chart data...
Computing Atmospheric mass density...
Loading historical data...
Loading historical data...
Loading historical data...
Loading historical data...
Loading historical data...
Loading historical data...
Loading historical data...

Documentation

Showing up to 5 results
|